Regional Weather Roundup
Issued by NWS Glasgow, MT

Home | Current Version | Previous Version | Text Only | Print | Product List | Glossary On
Versions: 1 2 3 4 5 6 7 8 9 10 11 12 13 14 15 16 17 18 19 20 21 22 23 24 25 26 27 28 29 30 31 32 33 34 35 36 37 38 39 40 41 42 43 44 45 46 47 48 49 50
100
ASUS45 KGGW 031015
RWRGGW
HOURLY REGIONAL WEATHER ROUNDUP FOR NORTHEAST MONTANA
NATIONAL WEATHER SERVICE GLASGOW MONTANA
400 AM MDT TUE MAY 03 2016

NOTE: "FAIR" INDICATES FEW OR NO CLOUDS BELOW 12,000 FEET WITH NO
SIGNIFICANT WEATHER AND/OR OBSTRUCTIONS TO VISISBILITY.

NORTHEAST MONTANA


CITY           SKY/WX    TMP DP  RH WIND       PRES   REMARKS
GLASGOW        CLEAR     46  37  71 NW6       30.04S
PLENTYWOOD       N/A     46  28  49 NW3         N/A
WOLF POINT     CLEAR     41  37  86 W5        30.04R
JORDAN           N/A     45  41  86 W9        30.06R
SIDNEY         CLEAR     39  32  75 CALM      30.03S
GLENDIVE       CLEAR     39  32  75 W8        30.06S
SCOBEY           N/A     37  22  54 CALM      30.03
OPHEIM           N/A     55  28  35 CALM      29.84S

FORT PECK REPORTS


CITY           SKY/WX    TMP DP  RH WIND       PRES   REMARKS
FORT PECK        N/A     50  43  77 W2          N/A
THE PINES        N/A     52  41  66 W2          N/A

SOUTHEAST MONTANA


CITY           SKY/WX    TMP DP  RH WIND       PRES   REMARKS
BILLINGS       CLEAR     47  36  65 SW15      30.13R
MILES CITY     CLEAR     49  41  74 W13       30.06R
BAKER          CLOUDY    41  33  73 CALM      30.06R
LIVINGSTON     CLEAR     37  29  72 CALM      30.18S

CENTRAL MONTANA


CITY           SKY/WX    TMP DP  RH WIND       PRES   REMARKS
HAVRE          CLEAR     44  39  82 SW7       30.08R
LEWISTOWN      CLEAR     41  31  67 SE7       30.13S
GREAT FALLS    CLEAR     41  34  76 SW8       30.10S
CUT BANK       CLEAR     41  33  73 W3        30.09S
HELENA         CLEAR     44  28  53 CALM      30.14S
BUTTE          CLEAR     34  26  72 SE7       30.21S
BOZEMAN        CLEAR     39  30  70 CALM      30.18R

WESTERN MONTANA


CITY           SKY/WX    TMP DP  RH WIND       PRES   REMARKS
MISSOULA       CLEAR     47  38  71 CALM      30.15R
KALISPELL      NOT AVBL

NORTH DAKOTA


CITY           SKY/WX    TMP DP  RH WIND       PRES   REMARKS
WILLISTON      CLEAR     44  32  62 CALM      30.02R
DICKINSON      CLOUDY    39  31  72 SW8       30.02S
MINOT          CLEAR     54  34  46 SW12      29.95S
BISMARCK       PTCLDY    41  39  93 W3        30.00F

SOUTHERN SASKATCHEWAN


CITY           SKY/WX    TMP DP  RH WIND       PRES   REMARKS
REGINA         PTCLDY    45  28  53 N5        30.01R
MOOSE JAW      PTCLDY    45  32  61 W2        30.02
ESTEVAN        CLEAR     41  32  70 W10       29.99R
SWIFT CURRENT  CLEAR     50  36  57 SW13      30.03S





USA.gov is the U.S. government's official web portal to all federal, state and local government web resources and services.